Location: Darmstadt
(49.8706°N, 8.6494°E)
Time: 06:51:05
(UTC+01:00)

SeaSat 1 - Pass Details

Date: 31 October 2020
Orbit: 744 x 747 km, 108.0° (Epoch: 03 December)

Event Time Altitude Azimuth Distance (km) Brightness Sun altitude
Exits shadow 19:14:42 45° 61° (ENE) 1,013 2.7 -21.5°
Maximum altitude 19:14:58 46° 51° (NE) 1,007 2.7 -21.6°
Drops below altitude 10° 19:19:40 10° 340° (NNW) 2,275 5.2 -22.3°
Sets 19:22:00 0° 334° (NNW) 3,203 6.1 -22.7°
